FLOCK 3R-7 (43742 NORAD) Tracking and Keplerian Element Data

This shows tracking and keplerian element data for the satellite.

Feedback or suggestion? Click here.




ElementValue
Catalog43742
NameFLOCK 3R-7
Epoch Orbit455
Epoch Day363.0700288
Epoch Year2018
RAAN68.0912
Inclination97.4792
Eccentricity0.0017769
Argument of Perigee218.0122
Mean Anonmoly189.2018
Mean Motion15.26108144
Decay Rate7.05E-06
L11 43742U 18096Z 18363.07002880 .00000705 00000-0 30133-4 0 9996
L22 43742 97.4792 68.0912 0017769 218.0122 189.2018 15.26108144 4557

Live tracking and technical data element details for FLOCK 3R-7 (NORAD 43742). FLOCK 3R-7 can be tracked NOW for your location showing map with azimuth and elevation plus other details from your city location.

Track the satellite on the map from your city or location and see movement details for azimuth, elevation, latitude, longitude, range, height, and movement on the map or in text.







IsCatalogInMostPopularTable: catalog: 43742, numindb: 67
Update: records affected: 1



GetName: 43742 FLOCK 3R-7

Hit Count: updated at: Wed, 24 Apr 2019 17:48:07 GMT